{"data":{"norad_id":55454,"epoch":"2026-05-25T00:03:57.009024Z","epoch_age_seconds":75107,"freshness":"FRESH","line1":"1 55454U 23015F   26145.00274316  .00000539  00000+0  29095-4 0  9990","line2":"2 55454  43.0025 257.6912 0001018 276.4494  83.6242 15.27575877182399","mean_motion":15.27575877,"eccentricity":0.0001018,"inclination_deg":43.0025,"raan_deg":257.6912,"arg_perigee_deg":276.4494,"mean_anomaly_deg":83.6242,"bstar":2.9095e-5,"rev_number":18239,"period_min":94.267003144093,"perigee_km":482.36297181129,"apogee_km":483.75991181404,"semimajor_km":6861.1984418127,"source":"CELESTRAK","updated_at":"2026-05-25T13:38:17.802994Z"}}